Sister Bay, Wisconsin, United States (54234)
Lat: 45.19N, Lon: 87.12W
Wx Zone: WIZ022
Local Info
Past Weather Observations for Saturday, February 6, 2016

NOTE: This archive is for the closest National Weather Service station to Sister Bay. Information may differ from the station used for current weather conditions.

Click here for Long-term Archive

Time Weather Temperature Dewpoint Humidity Pressure Winds Precip Visibility
23:55
Overcast
27°F / -3°C 25°F / -4°C 93% 29.83 in
(1010 mb)
S 12.7 mph
(S 20 kph)
- 7SM
23:35
Overcast
Light Snow
28°F / -2°C 25°F / -4°C 86% 29.83 in
(1010 mb)
SSE 15 mph
(SSE 24 kph)
- 2 1/2SM
23:15
Overcast
27°F / -3°C 25°F / -4°C 93% 29.83 in
(1010 mb)
S 11.5 mph
(S 19 kph)
- 10SM
22:55
Overcast
Light Snow
27°F / -3°C 25°F / -4°C 93% 29.86 in
(1011 mb)
S 12.7 mph
(S 20 kph)
- 2 1/2SM
22:35
Overcast
Light Snow
28°F / -2°C 25°F / -4°C 86% 29.89 in
(1012 mb)
SSE 11.5 mph
(SSE 19 kph)
- 4SM
22:15
Overcast
28°F / -2°C 23°F / -5°C 80% 29.89 in
(1012 mb)
SSE 10.4 mph
(SSE 17 kph)
- 10SM
21:55
Overcast
28°F / -2°C 23°F / -5°C 80% 29.89 in
(1012 mb)
SW 11.5 mph
(SW 19 kph)
- 10SM
21:35
Overcast
28°F / -2°C 23°F / -5°C 80% 29.89 in
(1012 mb)
SSE 11.5 mph
(SSE 19 kph)
- 10SM
21:15
Overcast
28°F / -2°C 23°F / -5°C 80% 29.89 in
(1012 mb)
SSE 11.5 mph
(SSE 19 kph)
- 10SM
20:55
Overcast
28°F / -2°C 23°F / -5°C 80% 29.89 in
(1012 mb)
SSE 11.5 mph
(SSE 19 kph)
- 10SM
20:35
Overcast
28°F / -2°C 23°F / -5°C 80% 29.92 in
(1013 mb)
SSE 12.7 mph
(SSE 20 kph)
- 10SM
20:15
Mostly Cloudy
28°F / -2°C 23°F / -5°C 80% 29.92 in
(1013 mb)
SSE 12.7 mph
(SSE 20 kph)
- 10SM
19:55
Mostly Cloudy
28°F / -2°C 23°F / -5°C 80% 29.92 in
(1013 mb)
SSE 11.5 mph
(SSE 19 kph)
- 10SM
19:35
Mostly Cloudy
28°F / -2°C 23°F / -5°C 80% 29.92 in
(1013 mb)
S 10.4 mph
(S 17 kph)
- 10SM
19:15
Overcast
28°F / -2°C 23°F / -5°C 80% 29.95 in
(1014 mb)
SSE 11.5 mph
(SSE 19 kph)
- 10SM
18:55
Overcast
28°F / -2°C 23°F / -5°C 80% 29.95 in
(1014 mb)
SSE 11.5 mph
(SSE 19 kph)
- 10SM
18:35
Overcast
28°F / -2°C 23°F / -5°C 80% 29.95 in
(1014 mb)
S 11.5 mph
(S 19 kph)
- 10SM
18:15
Overcast
28°F / -2°C 23°F / -5°C 80% 29.95 in
(1014 mb)
S 9.2 mph
(S 15 kph)
- 10SM
17:55
Overcast
28°F / -2°C 23°F / -5°C 80% 29.95 in
(1014 mb)
SSE 9.2 mph
(SSE 15 kph)
- 10SM
17:35
Overcast
28°F / -2°C 23°F / -5°C 80% 29.98 in
(1015 mb)
SW 10.4 mph
(SW 17 kph)
- 10SM
17:15
Mostly Cloudy
27°F / -3°C 21°F / -6°C 80% 29.98 in
(1015 mb)
SSE 8.1 mph
(SSE 13 kph)
- 10SM
16:55
Partly Cloudy
27°F / -3°C 21°F / -6°C 80% 29.98 in
(1015 mb)
SSE 8.1 mph
(SSE 13 kph)
- 10SM
16:35
Partly Cloudy
27°F / -3°C 21°F / -6°C 80% 29.98 in
(1015 mb)
SW 6.9 mph
(SW 11 kph)
- 10SM
16:15
Mostly Cloudy
28°F / -2°C 21°F / -6°C 74% 29.98 in
(1015 mb)
SW 10.4 mph
(SW 17 kph)
- 10SM
15:55
Mostly Cloudy
30°F / -1°C 21°F / -6°C 69% 29.98 in
(1015 mb)
SW 11.5 mph
(SW 19 kph)
- 10SM
15:30
Overcast
28°F / -2°C 21°F / -6°C 74% 30.01 in
(1016 mb)
SW 11.5 mph
(SW 19 kph)
- 10SM
15:15
Overcast
28°F / -2°C 21°F / -6°C 74% 30.01 in
(1016 mb)
SW 9.2 mph
(SW 15 kph)
- 10SM
14:55
Overcast
28°F / -2°C 23°F / -5°C 80% 30.01 in
(1016 mb)
SW 9.2 mph
(SW 15 kph)
- 10SM
14:35
Overcast
28°F / -2°C 21°F / -6°C 74% 30.01 in
(1016 mb)
SW 11.5 mph
(SW 19 kph)
- 10SM
14:15
Overcast
27°F / -3°C 21°F / -6°C 80% 30.01 in
(1016 mb)
SW 11.5 mph
(SW 19 kph)
- 10SM
13:55
Overcast
27°F / -3°C 21°F / -6°C 80% 30.01 in
(1016 mb)
SW 9.2 mph
(SW 15 kph)
- 10SM
13:35
Overcast
27°F / -3°C 21°F / -6°C 80% 30.04 in
(1017 mb)
SW 10.4 mph
(SW 17 kph)
- 10SM
13:15
Overcast
27°F / -3°C 21°F / -6°C 80% 30.04 in
(1017 mb)
SSW 9.2 mph
(SSW 15 kph)
- 10SM
12:55
Overcast
27°F / -3°C 21°F / -6°C 80% 30.04 in
(1017 mb)
SSW 11.5 mph
(SSW 19 kph)
- 7SM
12:35
Overcast
25°F / -4°C 21°F / -6°C 86% 30.04 in
(1017 mb)
SSW 10.4 mph
(SSW 17 kph)
- 7SM
12:15
Overcast
25°F / -4°C 21°F / -6°C 86% 30.06 in
(1018 mb)
SSW 9.2 mph
(SSW 15 kph)
- 7SM
11:55
Overcast
25°F / -4°C 21°F / -6°C 86% 30.06 in
(1018 mb)
SSW 12.7 mph
(SSW 20 kph)
- 7SM
11:35
Overcast
25°F / -4°C 21°F / -6°C 86% 30.06 in
(1018 mb)
SSW 9.2 mph
(SSW 15 kph)
- 7SM
11:15
Overcast
25°F / -4°C 21°F / -6°C 86% 30.06 in
(1018 mb)
SSW 12.7 mph
(SSW 20 kph)
- 7SM
10:55
Overcast
23°F / -5°C 21°F / -6°C 93% 30.06 in
(1018 mb)
SSW 12.7 mph
(SSW 20 kph)
- 7SM
10:35
Overcast
23°F / -5°C 21°F / -6°C 93% 30.06 in
(1018 mb)
SSW 9.2 mph
(SSW 15 kph)
- 7SM
10:15
Overcast
Fog And Mist
23°F / -5°C 21°F / -6°C 93% 30.06 in
(1018 mb)
SSW 8.1 mph
(SSW 13 kph)
- 5SM
09:55
Overcast
23°F / -5°C 21°F / -6°C 93% 30.06 in
(1018 mb)
SSW 10.4 mph
(SSW 17 kph)
- 7SM
09:35
Overcast
23°F / -5°C 21°F / -6°C 93% 30.06 in
(1018 mb)
SSW 10.4 mph
(SSW 17 kph)
- 7SM
09:15
Overcast
23°F / -5°C 21°F / -6°C 93% 30.06 in
(1018 mb)
SSW 9.2 mph
(SSW 15 kph)
- 7SM
08:55
Overcast
Fog And Mist
21°F / -6°C 21°F / -6°C 100% 30.09 in
(1019 mb)
W 11.5 mph
(W 19 kph)
- 5SM
08:35
Overcast
Fog And Mist
21°F / -6°C 21°F / -6°C 100% 30.09 in
(1019 mb)
W 8.1 mph
(W 13 kph)
- 5SM
08:15
Overcast
Fog And Mist
21°F / -6°C 21°F / -6°C 100% 30.09 in
(1019 mb)
W 8.1 mph
(W 13 kph)
- 5SM
07:55
Overcast
Fog And Mist
21°F / -6°C 19°F / -7°C 93% 30.09 in
(1019 mb)
SSW 9.2 mph
(SSW 15 kph)
- 5SM
07:35
Overcast
Fog And Mist
21°F / -6°C 19°F / -7°C 93% 30.09 in
(1019 mb)
W 6.9 mph
(W 11 kph)
- 5SM
07:15
Overcast
Fog And Mist
21°F / -6°C 19°F / -7°C 93% 30.09 in
(1019 mb)
SSW 9.2 mph
(SSW 15 kph)
- 5SM
06:55
Overcast
Fog And Mist
21°F / -6°C 21°F / -6°C 100% 30.09 in
(1019 mb)
W 10.4 mph
(W 17 kph)
- 5SM
06:35
Overcast
Fog And Mist
21°F / -6°C 19°F / -7°C 93% 30.09 in
(1019 mb)
W 11.5 mph
(W 19 kph)
- 5SM
06:15
Overcast
Fog And Mist
21°F / -6°C 19°F / -7°C 93% 30.09 in
(1019 mb)
SSW 10.4 mph
(SSW 17 kph)
- 4SM
05:55
Overcast
Fog And Mist
21°F / -6°C 19°F / -7°C 93% 30.09 in
(1019 mb)
SSW 9.2 mph
(SSW 15 kph)
- 4SM
05:35
Overcast
Fog And Mist
19°F / -7°C 19°F / -7°C 100% 30.09 in
(1019 mb)
SSW 10.4 mph
(SSW 17 kph)
- 4SM
05:15
Overcast
Fog And Mist
19°F / -7°C 19°F / -7°C 100% 30.09 in
(1019 mb)
SSW 11.5 mph
(SSW 19 kph)
- 4SM
04:55
Overcast
Fog And Mist
19°F / -7°C 19°F / -7°C 100% 30.09 in
(1019 mb)
W 11.5 mph
(W 19 kph)
- 5SM
04:35
Overcast
21°F / -6°C 19°F / -7°C 93% 30.09 in
(1019 mb)
W 11.5 mph
(W 19 kph)
- 7SM
04:15
Overcast
21°F / -6°C 19°F / -7°C 93% 30.09 in
(1019 mb)
W 11.5 mph
(W 19 kph)
- 10SM
03:55
Overcast
21°F / -6°C 18°F / -8°C 86% 30.09 in
(1019 mb)
SSW 12.7 mph
(SSW 20 kph)
- 10SM
03:35
Overcast
21°F / -6°C 18°F / -8°C 86% 30.09 in
(1019 mb)
SSW 11.5 mph
(SSW 19 kph)
- 10SM
03:15
Overcast
Light Snow
21°F / -6°C 18°F / -8°C 86% 30.09 in
(1019 mb)
SSW 11.5 mph
(SSW 19 kph)
- 10SM
02:55
Overcast
Light Snow
21°F / -6°C 18°F / -8°C 86% 30.09 in
(1019 mb)
SSW 11.5 mph
(SSW 19 kph)
- 7SM
02:35
Overcast
Light Snow
21°F / -6°C 18°F / -8°C 86% 30.09 in
(1019 mb)
SSW 11.5 mph
(SSW 19 kph)
- 7SM
02:15
Overcast
Light Snow
21°F / -6°C 18°F / -8°C 86% 30.09 in
(1019 mb)
SSW 10.4 mph
(SSW 17 kph)
- 10SM
01:55
Overcast
Light Snow
21°F / -6°C 16°F / -9°C 80% 30.09 in
(1019 mb)
SSW 11.5 mph
(SSW 19 kph)
- 10SM
01:35
Overcast
Light Snow
19°F / -7°C 16°F / -9°C 86% 30.09 in
(1019 mb)
SSW 12.7 mph
(SSW 20 kph)
- 10SM
01:15
Overcast
Light Snow
19°F / -7°C 16°F / -9°C 86% 30.09 in
(1019 mb)
SSW 11.5 mph
(SSW 19 kph)
- 7SM
00:55
Overcast
Light Snow
19°F / -7°C 16°F / -9°C 86% 30.09 in
(1019 mb)
SSW 12.7 mph
(SSW 20 kph)
- 10SM
00:35
Overcast
Light Snow
19°F / -7°C 16°F / -9°C 86% 30.12 in
(1020 mb)
SSW 13.8 mph
(SSW 22 kph)
- 10SM
00:15
Overcast
Light Snow
19°F / -7°C 16°F / -9°C 86% 30.12 in
(1020 mb)
SSW 12.7 mph
(SSW 20 kph)
- 7SM
Time Weather Temperature Dewpoint Humidity Pressure Winds Precip Visibility


Weather for websites

WeatherForYou.com, LLC is not responsible for any damages or problems caused by this service. Current weather conditions are obtained from the closest station including government and personal stations which may have varying degrees of accuracy. Weather forecasts are derived from the NOAA NDFD. Like all things, this site belongs to Jesus Christ... He just trusts us to maintain it. If you have any questions or comments email webmaster@weatherforyou.com

Copyright © 2016, WeatherForYou.com LLC. All rights reserved.